Overview Statistics Trail Chart Weather Telemetry Raw packets
 

This is the latest recevied weather packets stored in our database for station/object DH9SB-6. If no packets are shown the sender has not sent any weather packets the latest 10 day(s).

<< 3 4 5 6 7 8 9 >>
Time Temp. Humidity Pressure Rain* Wind** Luminosity Snow
1788099753 27.78° C 42% - 0 mm - - -
1788099177 27.22° C 47% - 0 mm - - -
1788098554 26.67° C 49% - 0 mm - - -
1788097977 26.67° C 47% - 0 mm - - -
1788097354 26.67° C 52% - 0 mm - - -
1788096777 25.56° C 52% - 0 mm - - -
1788096154 26.11° C 51% - 0 mm - - -
1788095577 26.11° C 51% - 0 mm - - -
1788094953 26.11° C 52% - 0 mm - - -
1788094380 25.56° C 52% - 0 mm - - -
1788093753 25.56° C 51% - 0 mm - - -
1788093176 25.56° C 51% - 0 mm - - -
1788092555 25.56° C 51% - 0 mm - - -
1788091977 25.56° C 51% - 0 mm - - -
1788091353 25.56° C 51% - 0 mm - - -
1788090777 25° C 52% - 0 mm - - -
1788090153 24.44° C 53% - 0 mm - - -
1788089576 25° C 51% - 0 mm - - -
1788088953 25° C 52% - 0 mm - - -
1788088377 25° C 51% - 0 mm - - -
1788087753 25° C 51% - 0 mm - - -
1788087177 24.44° C 50% - 0 mm - - -
1788086553 25.56° C 50% - 0 mm - - -
1788085976 25.56° C 48% - 0 mm - - -
1788085353 25.56° C 50% - 0 mm - - -

* Rain latest hour (hover to see other rain measurements)
** Current wind speed in m/s (hover to see current wind gust speed)